Location: Zagreb
(45.8000°N, 16.0000°E)
Time: 20:56:19
(UTC+01:00)

DX 1 - Pass Details

Date: 03 November 2020
Orbit: 619 x 630 km, 98.5° (Epoch: 01 December)

Event Time Altitude Azimuth Distance (km) Brightness Sun altitude
Exits shadow 18:56:39 - 7° (N) 2,628 ? -24.3°
Reaches altitude 10° 18:58:12 10° 4° (N) 2,002 ? -24.6°
Maximum altitude 19:02:23 49° 289° (WNW) 807 ? -25.3°
Drops below altitude 10° 19:06:34 10° 215° (SW) 1,993 ? -26.0°
Sets 19:08:48 0° 210° (SSW) 2,898 ? -26.4°
